Location: Ripley
(48.3812°N, 115.4473°W)
Time: 20:39:38
(UTC+00:00)

RS-15 - Pass Details

Date: 29 June 2022
Orbit: 1881 x 2163 km, 64.8° (Epoch: 19 August)

Event Time Altitude Azimuth Distance (km) Brightness Sun altitude
Rises 07:14:22 0° 319° (NW) 5,697 11.4 -18.1°
Reaches altitude 10° 07:17:50 10° 320° (NW) 4,693 10.9 -18.1°
Maximum altitude 07:30:18 90° 46° (NE) 2,146 8.2 -18.3°
Enters shadow 07:41:11 14° 145° (SE) 4,220 9.3 -18.4°
